EW0478 Weather Reports


Display with metric or nautical units.
time (UTC)temp
F
wind
direction
speed
MPH
gust
MPH
rain 1hr
in
rain 24hr
in
rain mn
in
humidity
%
barometer
mb
20260510174716 78 322 1.0 5.0 0.00 0.04 0.01 60 1009.1
20260510174510 77 38 1.0 5.0 0.00 0.04 0.01 57 1009.2
20260510173603 77 292 1.0 5.0 0.00 0.04 0.01 56 1009.2
20260510173009 78 252 0.0 5.0 0.00 0.04 0.01 59 1009.2
20260510172703 78 217 2.0 8.0 0.00 0.04 0.01 57 1009.1
20260510171803 77 324 2.0 8.0 0.00 0.04 0.01 59 1009.0
20260510171512 77 303 1.0 8.0 0.00 0.04 0.01 60 1009.1
20260510170903 76 293 1.0 4.0 0.00 0.04 0.01 62 1008.9
20260510170012 75 42 1.0 4.0 0.00 0.04 0.01 62 1009.1
20260510170003 76 215 2.0 5.0 0.00 0.04 0.01 62 1009.0
20260510165403 76 236 1.0 4.0 0.00 0.04 0.01 66 1009.1
20260510164503 73 121 3.0 7.0 0.00 0.04 0.01 68 1009.2
20260510163603 74 133 2.0 4.0 0.00 0.04 0.01 69 1009.2
20260510163004 73 237 1.0 3.0 0.00 0.04 0.01 70 1009.4
20260510162917 74 199 1.0 3.0 0.00 0.04 0.01 70 1009.4
20260510161803 72 52 1.0 3.0 0.00 0.04 0.01 72 1009.3
20260510161506 71 24 1.0 3.0 0.00 0.04 0.01 76 1009.4
20260510160903 70 137 2.0 4.0 0.00 0.04 0.01 77 1009.4
20260510160017 70 248 2.0 5.0 0.00 0.04 0.01 77 1009.3
20260510160003 70 160 1.0 4.0 0.00 0.04 0.01 77 1009.2
20260510155403 69 139 1.0 3.0 0.00 0.04 0.01 80 1009.5
20260510154509 67 170 0.0 6.0 0.00 0.04 0.01 81 1009.9
20260510154503 68 118 2.0 6.0 0.00 0.04 0.01 81 1009.7
20260510153603 68 185 2.0 5.0 0.00 0.04 0.01 81 1009.8
20260510153015 67 243 1.0 5.0 0.00 0.04 0.01 81 1009.8
20260510152703 68 147 1.0 4.0 0.00 0.04 0.01 83 1009.7
20260510151803 67 146 1.0 5.0 0.00 0.04 0.01 83 1009.7
20260510151610 66 105 0.0 4.0 0.00 0.04 0.01 85 1009.9
20260510150903 66 137 1.0 4.0 0.00 0.04 0.01 85 1009.9
20260510150005 64 288 0.0 3.0 0.00 0.04 0.01 88 1009.9
20260510150003 65 133 1.0 4.0 0.00 0.04 0.01 88 1009.7
20260510145403 64 143 1.0 4.0 0.00 0.04 0.01 88 1009.8
20260510144510 62 118 0.0 3.0 0.00 0.04 0.01 92 1009.9
20260510144503 63 123 1.0 3.0 0.00 0.04 0.01 92 1009.8
20260510143817 62 112 1.0 3.0 0.00 0.04 0.01 91 1009.7
20260510143008 60 194 0.0 2.0 0.00 0.04 0.01 94 1010.0
20260510142703 60 152 1.0 2.0 0.00 0.04 0.01 94 1009.9
20260510142017 60 159 1.0 2.0 0.00 0.04 0.01 95 1009.8
20260510141510 59 219 0.0 2.0 0.00 0.04 0.01 96 1009.9
20260510140903 59 134 0.0 2.0 0.00 0.04 0.01 97 1009.7
20260510140003 58 122 1.0 3.0 0.00 0.04 0.01 97 1009.8
20260510135618 57 120 0.0 3.0 0.00 0.04 0.01 97 1009.8
20260510134506 56 212 0.0 0.0 0.00 0.04 0.01 98 1009.8
20260510134503 57 0 0.0 0.0 0.00 0.04 0.01 98 1009.7
20260510133603 56 0 0.0 0.0 0.00 0.04 0.01 98 1009.7
20260510133006 55 250 0.0 0.0 0.00 0.04 0.01 98 1009.9
20260510132703 55 0 0.0 0.0 0.00 0.04 0.01 98 1009.9
20260510131803 55 0 0.0 0.0 0.00 0.04 0.01 98 1009.9
20260510131510 54 300 0.0 0.0 0.00 0.04 0.01 98 1010.1
20260510130903 54 0 0.0 0.0 0.00 0.04 0.01 98 1009.9
20260510130011 54 195 0.0 0.0 0.00 0.04 0.01 98 1010.1
20260510130003 54 0 0.0 0.0 0.00 0.04 0.01 98 1010.0
20260510125403 54 0 0.0 0.0 0.00 0.04 0.01 98 1009.9
20260510124512 53 260 0.0 0.0 0.00 0.04 0.01 98 1009.8
20260510124503 54 0 0.0 0.0 0.00 0.04 0.01 98 1009.7
20260510123603 53 0 0.0 0.0 0.00 0.04 0.01 98 1009.4
20260510123007 53 213 0.0 0.0 0.00 0.04 0.01 98 1009.5
20260510122703 53 131 0.0 3.0 0.00 0.04 0.01 98 1009.3
20260510122017 53 131 0.0 3.0 0.00 0.04 0.01 98 1009.5
20260510121508 52 117 0.0 0.0 0.00 0.04 0.01 98 1009.4
20260510120903 53 0 0.0 0.0 0.00 0.04 0.01 98 1009.4
20260510120014 52 355 0.0 0.0 0.00 0.04 0.01 98 1009.2
20260510120003 53 0 0.0 0.0 0.00 0.04 0.01 98 1009.1
20260510115403 52 0 0.0 0.0 0.00 0.04 0.01 98 1009.1
20260510114503 52 355 0.0 0.0 0.00 0.04 0.01 98 1009.2
20260510113603 52 0 0.0 0.0 0.00 0.04 0.01 98 1009.1
20260510113006 51 355 0.0 0.0 0.00 0.04 0.01 98 1009.2
20260510112703 52 0 0.0 0.0 0.00 0.04 0.01 98 1009.0
20260510111803 51 0 0.0 0.0 0.00 0.04 0.01 98 1009.1
20260510111508 51 356 0.0 0.0 0.00 0.04 0.01 98 1009.2
20260510110903 51 0 0.0 0.0 0.00 0.04 0.01 98 1009.0
20260510110015 51 355 0.0 0.0 0.00 0.04 0.01 98 1009.0
20260510110003 52 0 0.0 0.0 0.00 0.04 0.01 98 1008.9
20260510105403 51 0 0.0 0.0 0.00 0.04 0.01 98 1008.8
20260510104528 51 354 0.0 0.0 0.00 0.04 0.01 98 1008.7
20260510104503 51 0 0.0 0.0 0.00 0.04 0.01 98 1008.6
20260510103603 51 0 0.0 0.0 0.00 0.04 0.01 98 1008.6
20260510103012 51 356 0.0 0.0 0.00 0.04 0.01 98 1008.5
20260510102703 51 0 0.0 0.0 0.00 0.04 0.01 98 1008.5
20260510101803 51 0 0.0 0.0 0.00 0.04 0.01 98 1008.3
20260510101504 51 356 0.0 0.0 0.00 0.04 0.01 98 1008.5
20260510100903 51 0 0.0 0.0 0.00 0.04 0.01 98 1008.3
20260510100008 51 356 0.0 0.0 0.00 0.04 0.01 98 1008.5
20260510100004 51 0 0.0 0.0 0.00 0.04 0.01 98 1008.4
20260510095403 51 25 0.0 3.0 0.00 0.04 0.01 98 1008.2
20260510094528 51 25 0.0 3.0 0.00 0.04 0.01 98 1008.5
20260510094503 51 22 0.0 3.0 0.00 0.04 0.01 98 1008.4
20260510093603 51 357 0.0 3.0 0.00 0.04 0.01 98 1008.2
20260510093011 51 9 1.0 4.0 0.00 0.04 0.01 98 1008.6
20260510092703 51 0 0.0 0.0 0.00 0.04 0.01 98 1008.3
20260510091803 51 0 0.0 0.0 0.00 0.04 0.01 98 1008.4
20260510091506 50 351 0.0 0.0 0.00 0.04 0.01 98 1008.5
20260510090903 51 0 0.0 0.0 0.00 0.04 0.01 98 1008.4
20260510090006 50 119 0.0 3.0 0.00 0.04 0.01 98 1008.6
20260510090003 50 341 0.0 4.0 0.00 0.04 0.01 98 1008.5
20260510085403 50 349 0.0 4.0 0.00 0.04 0.01 98 1008.6
20260510084507 49 329 0.0 2.0 0.00 0.04 0.01 98 1008.7
20260510084503 50 332 0.0 2.0 0.00 0.04 0.01 98 1008.6
20260510083603 49 52 0.0 3.0 0.00 0.04 0.01 98 1008.5
20260510083010 49 274 0.0 3.0 0.00 0.04 0.01 98 1008.5
20260510082703 49 0 0.0 0.0 0.00 0.04 0.01 98 1008.2
20260510081803 49 0 0.0 0.0 0.00 0.04 0.01 98 1007.8
20260510081604 49 338 0.0 0.0 0.00 0.04 0.01 98 1007.9
20260510080904 49 0 0.0 0.0 0.00 0.04 0.01 98 1007.8
20260510080007 49 338 0.0 0.0 0.00 0.04 0.01 98 1008.0
20260510080003 49 0 0.0 0.0 0.00 0.04 0.01 98 1007.8
20260510075403 49 0 0.0 0.0 0.00 0.04 0.01 98 1007.7
20260510074512 48 338 0.0 0.0 0.00 0.04 0.01 98 1007.8
20260510074503 49 0 0.0 0.0 0.00 0.04 0.01 98 1007.7
20260510073603 49 0 0.0 0.0 0.01 0.04 0.01 98 1007.8
20260510073005 48 338 0.0 0.0 0.01 0.04 0.01 97 1007.8
20260510072703 49 0 0.0 0.0 0.01 0.04 0.01 97 1007.7
20260510071803 49 0 0.0 0.0 0.01 0.04 0.01 97 1007.6
20260510071508 48 338 0.0 0.0 0.01 0.04 0.01 97 1007.8
20260510071118 49 0 0.0 0.0 0.01 0.04 0.01 97 1007.5
20260510070016 49 338 0.0 2.0 0.01 0.04 0.01 97 1007.6
20260510070003 49 355 0.0 2.0 0.01 0.04 0.01 97 1007.5
20260510065403 49 3 0.0 1.0 0.01 0.04 0.01 97 1007.4
20260510064511 49 4 0.0 1.0 0.01 0.04 0.01 97 1007.5
20260510064503 49 1 0.0 1.0 0.01 0.04 0.01 97 1007.4
20260510063604 49 0 0.0 0.0 0.00 0.03 0.00 97 1007.2
20260510063013 49 87 0.0 0.0 0.00 0.03 0.00 97 1007.4
20260510062703 49 0 0.0 0.0 0.00 0.03 0.00 97 1007.3
20260510061803 49 0 0.0 0.0 0.00 0.03 0.00 97 1007.3
20260510061521 48 87 0.0 0.0 0.00 0.03 0.00 97 1007.5
20260510060903 49 0 0.0 0.0 0.00 0.03 0.00 97 1007.4
20260510060217 49 0 0.0 0.0 0.00 0.03 0.00 97 1007.3
20260510060006 48 87 0.0 0.0 0.00 0.03 0.00 97 1007.5
20260510055403 49 0 0.0 0.0 0.00 0.03 0.00 97 1007.4
20260510054507 48 87 0.0 0.0 0.00 0.03 0.00 97 1007.6
20260510054503 49 0 0.0 0.0 0.00 0.03 0.00 97 1007.5
20260510053603 49 0 0.0 0.0 0.00 0.03 0.00 97 1007.5
20260510053107 48 87 0.0 0.0 0.00 0.03 0.00 97 1007.7
20260510052703 49 0 0.0 0.0 0.00 0.03 0.00 97 1007.5
20260510051803 48 0 0.0 0.0 0.00 0.03 0.00 97 1007.6
20260510051607 48 87 0.0 0.0 0.00 0.03 0.00 97 1007.8
20260510050903 48 0 0.0 0.0 0.00 0.03 0.00 97 1007.7
20260510050010 48 87 0.0 0.0 0.00 0.03 0.00 97 1007.9
20260510050003 48 0 0.0 0.0 0.00 0.03 0.00 97 1007.7
20260510045616 48 0 0.0 0.0 0.00 0.03 0.00 97 1007.7
20260510044510 47 87 0.0 0.0 0.00 0.03 0.00 97 1007.9
20260510044503 48 0 0.0 0.0 0.00 0.03 0.00 97 1007.8
20260510043603 47 0 0.0 0.0 0.00 0.03 0.00 97 1007.8
20260510043019 47 87 0.0 0.0 0.00 0.03 0.00 97 1007.9
20260510042703 47 0 0.0 0.0 0.00 0.03 0.00 97 1007.8
20260510041804 47 0 0.0 0.0 0.00 0.03 0.00 97 1007.8
20260510041505 46 87 0.0 0.0 0.00 0.03 0.00 97 1007.9
20260510041117 46 0 0.0 0.0 0.00 0.03 0.00 97 1007.8
20260510040104 46 87 0.0 0.0 0.00 0.03 0.00 97 1008.0
20260510040004 46 0 0.0 0.0 0.00 0.03 0.00 97 1007.9
20260510035403 46 0 0.0 0.0 0.00 0.03 0.03 97 1007.8
20260510034506 45 87 0.0 0.0 0.00 0.03 0.03 97 1007.7
20260510034503 46 0 0.0 0.0 0.00 0.03 0.03 97 1007.6
20260510033603 46 0 0.0 0.0 0.00 0.03 0.03 97 1007.6
20260510033009 46 87 0.0 0.0 0.00 0.03 0.03 97 1007.7
20260510032703 46 0 0.0 0.0 0.00 0.03 0.03 97 1007.5
20260510031803 46 0 0.0 0.0 0.00 0.03 0.03 97 1007.5
20260510031511 46 87 0.0 0.0 0.00 0.03 0.03 96 1007.6
20260510030903 46 0 0.0 0.0 0.00 0.03 0.03 96 1007.5
20260510030009 46 87 0.0 0.0 0.00 0.03 0.03 96 1007.6
20260510030004 47 0 0.0 0.0 0.00 0.03 0.03 96 1007.5
20260510025403 47 0 0.0 0.0 0.00 0.03 0.03 96 1007.5
20260510024506 47 87 0.0 0.0 0.00 0.03 0.03 96 1007.5
20260510024503 47 0 0.0 0.0 0.00 0.03 0.03 96 1007.3
20260510023818 47 0 0.0 0.0 0.00 0.03 0.03 96 1007.3
20260510023009 47 87 0.0 0.0 0.00 0.03 0.03 96 1007.6
20260510022703 47 0 0.0 0.0 0.00 0.03 0.03 96 1007.4
20260510021803 48 0 0.0 0.0 0.00 0.03 0.03 96 1007.3
20260510021515 47 87 0.0 0.0 0.00 0.03 0.03 96 1007.4
20260510021116 48 0 0.0 0.0 0.00 0.03 0.03 96 1007.3
20260510020013 48 87 0.0 0.0 0.00 0.03 0.03 96 1007.5
20260510020003 48 0 0.0 0.0 0.00 0.03 0.03 96 1007.4
20260510015617 48 0 0.0 0.0 0.00 0.03 0.03 96 1007.4
20260510014506 48 87 0.0 0.0 0.00 0.03 0.03 96 1007.5
20260510014503 49 0 0.0 0.0 0.00 0.03 0.03 96 1007.4
20260510013603 49 0 0.0 0.0 0.00 0.03 0.03 95 1007.4
20260510013009 49 87 0.0 0.0 0.00 0.03 0.03 95 1007.4
20260510012703 50 0 0.0 0.0 0.00 0.03 0.03 95 1007.3
20260510011803 50 0 0.0 0.0 0.00 0.03 0.03 95 1007.3
20260510011510 50 87 0.0 0.0 0.00 0.03 0.03 95 1007.4
20260510010903 50 0 0.0 0.0 0.00 0.03 0.03 95 1007.3
20260510010103 50 87 0.0 0.0 0.00 0.03 0.03 95 1007.2
20260510010003 50 0 0.0 0.0 0.00 0.03 0.03 95 1007.1
20260510005403 51 0 0.0 0.0 0.00 0.03 0.03 95 1007.1
20260510004718 51 0 0.0 0.0 0.00 0.03 0.03 94 1007.0
20260510004507 51 87 0.0 0.0 0.00 0.03 0.03 94 1007.0
20260510003603 52 0 0.0 0.0 0.00 0.03 0.03 94 1006.8
20260510003011 52 87 0.0 0.0 0.00 0.03 0.03 94 1007.0
20260510002703 52 0 0.0 0.0 0.00 0.03 0.03 94 1006.8
20260510001803 52 0 0.0 0.0 0.00 0.03 0.03 93 1006.7
20260510001509 52 87 0.0 0.0 0.00 0.03 0.03 93 1006.8
20260510000903 53 0 0.0 0.0 0.00 0.03 0.03 93 1006.8
20260510000019 53 87 0.0 0.0 0.00 0.03 0.03 93 1006.7
20260510000003 54 0 0.0 0.0 0.00 0.03 0.03 93 1006.6
20260509235403 54 0 0.0 0.0 0.00 0.03 0.03 92 1006.6
20260509234718 55 0 0.0 0.0 0.00 0.03 0.03 92 1006.6
20260509234509 54 87 0.0 0.0 0.00 0.03 0.03 92 1006.7
20260509233603 55 0 0.0 0.0 0.00 0.03 0.03 91 1006.7
20260509233009 55 87 0.0 0.0 0.00 0.03 0.03 91 1006.7
20260509232703 56 0 0.0 0.0 0.00 0.03 0.03 90 1006.6
20260509231803 56 0 0.0 0.0 0.00 0.03 0.03 89 1006.6
20260509231511 56 87 0.0 0.0 0.00 0.03 0.03 89 1006.6
20260509230903 57 87 0.0 1.0 0.00 0.03 0.03 89 1006.6
20260509230004 57 87 0.0 1.0 0.00 0.03 0.03 89 1006.7
20260509225403 57 106 0.0 1.0 0.00 0.03 0.03 90 1006.5
20260509224506 57 106 0.0 1.0 0.00 0.03 0.03 90 1006.7
20260509224503 57 106 0.0 1.0 0.00 0.03 0.03 90 1006.6
20260509223817 57 123 0.0 1.0 0.00 0.03 0.03 90 1006.6
20260509223015 57 143 0.0 2.0 0.00 0.03 0.03 90 1006.7
20260509222703 57 118 0.0 3.0 0.00 0.03 0.03 91 1006.6
20260509221803 57 107 1.0 4.0 0.01 0.03 0.03 91 1006.7
20260509221510 56 65 0.0 4.0 0.01 0.03 0.03 90 1006.9
20260509220903 57 117 1.0 3.0 0.02 0.03 0.03 90 1006.9
20260509220218 57 166 0.0 2.0 0.03 0.03 0.03 90 1007.0
20260509220007 57 135 0.0 2.0 0.03 0.03 0.03 90 1007.1
20260509215403 57 156 0.0 2.0 0.03 0.03 0.03 90 1006.9
20260509214717 57 84 0.0 2.0 0.03 0.03 0.03 91 1007.0
20260509214508 56 139 0.0 1.0 0.03 0.03 0.03 91 1007.1
20260509213603 56 148 0.0 1.0 0.03 0.03 0.03 90 1007.3
20260509213012 56 147 0.0 1.0 0.03 0.03 0.03 89 1007.4
20260509212703 56 251 0.0 1.0 0.03 0.03 0.03 88 1007.5
20260509211803 57 0 0.0 0.0 0.02 0.02 0.02 87 1007.1
20260509211516 56 251 0.0 0.0 0.02 0.02 0.02 86 1007.1
20260509210903 57 250 0.0 1.0 0.01 0.01 0.01 85 1007.1
20260509210218 57 299 0.0 1.0 0.00 0.00 0.00 84 1007.1
20260509210006 57 251 0.0 1.0 0.00 0.00 0.00 84 1007.1
20260509205403 58 354 0.0 2.0 0.00 0.00 0.00 83 1007.2
20260509204510 58 350 0.0 4.0 0.00 0.00 0.00 82 1006.8
20260509204503 58 344 1.0 4.0 0.00 0.00 0.00 82 1006.7
20260509203603 59 346 1.0 6.0 0.00 0.00 0.00 82 1006.7
20260509203013 58 2 1.0 5.0 0.00 0.00 0.00 81 1007.0
20260509202703 59 3 3.0 7.0 0.00 0.00 0.00 81 1006.9
20260509202017 59 357 3.0 12.0 0.00 0.00 0.00 82 1006.8
20260509201514 59 274 1.0 9.0 0.00 0.00 0.00 82 1006.9
20260509200903 59 355 1.0 7.0 0.00 0.00 0.00 82 1006.8
20260509200217 59 5 1.0 3.0 0.00 0.00 0.00 84 1006.8
20260509200005 59 357 0.0 4.0 0.00 0.00 0.00 84 1006.9
20260509195403 59 343 1.0 5.0 0.00 0.00 0.00 83 1006.9
20260509194507 58 286 0.0 9.0 0.00 0.00 0.00 84 1007.2
20260509194503 59 348 2.0 10.0 0.00 0.00 0.00 84 1007.1
20260509193818 59 336 1.0 4.0 0.00 0.00 0.00 82 1007.3
20260509193013 59 286 0.0 6.0 0.00 0.00 0.00 81 1007.4
20260509192917 59 346 1.0 7.0 0.00 0.00 0.00 81 1007.4
20260509192017 60 357 2.0 7.0 0.00 0.00 0.00 80 1007.5
20260509191512 59 331 1.0 8.0 0.00 0.00 0.00 79 1007.6
20260509190903 61 326 1.0 6.0 0.00 0.00 0.00 78 1007.5
20260509190006 61 248 0.0 4.0 0.00 0.00 0.00 78 1007.7
20260509190003 61 344 1.0 5.0 0.00 0.00 0.00 78 1007.5
20260509185403 61 349 2.0 9.0 0.00 0.00 0.00 77 1007.5
20260509184515 61 2 1.0 4.0 0.00 0.00 0.00 75 1007.6
20260509184503 62 338 1.0 5.0 0.00 0.00 0.00 75 1007.5
20260509183603 62 334 2.0 6.0 0.00 0.00 0.00 74 1007.5
20260509183013 61 315 2.0 6.0 0.00 0.00 0.00 75 1007.5
20260509182703 62 351 2.0 6.0 0.00 0.00 0.00 75 1007.3
20260509181803 61 340 2.0 5.0 0.00 0.00 0.00 76 1007.3
20260509181512 61 312 1.0 7.0 0.00 0.00 0.00 74 1007.4
20260509180903 62 337 1.0 8.0 0.00 0.00 0.00 74 1007.2
20260509180005 62 2 1.0 5.0 0.00 0.00 0.00 73 1007.5
20260509180003 62 305 1.0 5.0 0.00 0.00 0.00 73 1007.4
20260509175403 62 312 1.0 8.0 0.00 0.00 0.00 73 1007.4